WLF2310 LCLK-OMDB

Flight info

Callsign WLF2310
Flight time N/A
Altitude 33000
Route EMEDA L13 STEPA/N0485F350 N71 LAKTO N307 MELDO A16 CVO L315 HGD M872 BDB Y214 RAPMA DCT KUVSO DCT KATIT DCT PEKEM M628 RIGIL G783 ASPED Q308 KIPOK Q568 IMPED
Aircraft B77L/H-SDE1E2E3FGHIJ2J3J4J5M1RWXY/LB1D1

Departure

Time 2026-04-29 22:06
Airport Larnaca International Airport (LCLK)

Arrival

Time N/A
Airport Dubai International Airport (OMDB)
Time Latitude Longitude Altitude Speed Heading
2026-04-29 21:43 34.88450 33.63219 20 ft 0 kts 226°
2026-04-29 22:03 34.88445 33.63214 20 ft 5 kts 226°
2026-04-29 22:03 34.88395 33.63178 22 ft 7 kts 177°
2026-04-29 22:04 34.88372 33.63225 21 ft 7 kts 80°
2026-04-29 22:04 34.88400 33.63277 22 ft 8 kts 49°
2026-04-29 22:04 34.88434 33.63327 24 ft 8 kts 59°
2026-04-29 22:04 34.88429 33.63388 28 ft 8 kts 117°
2026-04-29 22:05 34.88389 33.63451 24 ft 12 kts 130°
2026-04-29 22:05 34.88304 33.63507 23 ft 18 kts 193°
2026-04-29 22:05 34.87813 33.62927 28 ft 106 kts 225°
2026-04-29 22:06 34.87136 33.62102 27 ft 166 kts 225°
2026-04-29 22:06 34.86243 33.61032 351 ft 184 kts 224°
2026-04-29 22:06 34.85293 33.59988 986 ft 188 kts 223°
2026-04-29 22:06 34.84330 33.58853 1513 ft 193 kts 226°
2026-04-29 22:07 34.83388 33.57713 2198 ft 191 kts 220°
2026-04-29 22:07 34.82304 33.56759 2725 ft 197 kts 214°
2026-04-29 22:07 34.81111 33.55779 2882 ft 217 kts 201°
2026-04-29 22:07 34.79576 33.55688 3019 ft 241 kts 160°
2026-04-29 22:08 34.78187 33.56906 3396 ft 255 kts 131°
2026-04-29 22:08 34.77391 33.58019 3746 ft 262 kts 133°